| time (UTC) | temp F | wind direction | speed knots | gust knots | rain 1hr in | rain 24hr in | rain mn in | humidity % | barometer mb |
| 20260507010805 | 45 | 274 | 0.9 | 1.7 | 0.00 | 0.11 | 0.08 | 94 | 1011.8 |
| 20260507010305 | 45 | 274 | 0.9 | 1.7 | 0.00 | 0.11 | 0.08 | 94 | 1011.7 |
| 20260507005306 | 45 | 274 | 0.9 | 1.7 | 0.00 | 0.11 | 0.08 | 94 | 1011.6 |
| 20260507004805 | 45 | 274 | 0.9 | 1.7 | 0.00 | 0.11 | 0.08 | 94 | 1011.5 |
| 20260507004305 | 45 | 274 | 0.9 | 1.7 | 0.00 | 0.11 | 0.08 | 94 | 1011.5 |
| 20260507003305 | 45 | 274 | 0.9 | 2.6 | 0.00 | 0.11 | 0.08 | 94 | 1011.2 |
| 20260507002805 | 45 | 274 | 0.9 | 2.6 | 0.00 | 0.11 | 0.08 | 94 | 1011.3 |
| 20260507002306 | 45 | 273 | 0.9 | 3.5 | 0.00 | 0.11 | 0.08 | 94 | 1011.4 |
| 20260507001805 | 45 | 273 | 0.9 | 3.5 | 0.00 | 0.11 | 0.08 | 94 | 1011.0 |
| 20260507001304 | 45 | 292 | 0.9 | 3.5 | 0.00 | 0.11 | 0.08 | 94 | 1010.7 |
| 20260507000803 | 45 | 265 | 0.9 | 3.5 | 0.00 | 0.11 | 0.08 | 94 | 1010.9 |
| 20260507000303 | 45 | 292 | 0.9 | 2.6 | 0.00 | 0.11 | 0.08 | 94 | 1010.6 |
| 20260506235306 | 45 | 292 | 0.0 | 1.7 | 0.00 | 0.11 | 0.08 | 94 | 1010.1 |
| 20260506234803 | 45 | 292 | 0.9 | 1.7 | 0.00 | 0.11 | 0.08 | 94 | 1010.3 |
| 20260506234304 | 45 | 292 | 0.9 | 1.7 | 0.00 | 0.11 | 0.08 | 94 | 1010.0 |
| 20260506233303 | 46 | 292 | 0.0 | 1.7 | 0.00 | 0.11 | 0.08 | 94 | 1010.2 |
| 20260506232804 | 46 | 292 | 0.0 | 0.9 | 0.00 | 0.11 | 0.08 | 94 | 1010.3 |
| 20260506232306 | 46 | 292 | 0.9 | 2.6 | 0.00 | 0.11 | 0.08 | 94 | 1010.2 |
| 20260506231802 | 46 | 292 | 0.9 | 2.6 | 0.00 | 0.11 | 0.08 | 94 | 1010.2 |
| 20260506231301 | 46 | 292 | 0.9 | 2.6 | 0.00 | 0.11 | 0.08 | 94 | 1010.2 |
| 20260506230800 | 46 | 292 | 0.9 | 2.6 | 0.00 | 0.11 | 0.08 | 94 | 1010.1 |
| 20260506230301 | 46 | 292 | 0.9 | 2.6 | 0.00 | 0.11 | 0.08 | 94 | 1010.1 |
| 20260506225801 | 46 | 292 | 0.9 | 1.7 | 0.00 | 0.11 | 0.08 | 94 | 1010.1 |
| 20260506225301 | 46 | 292 | 0.9 | 2.6 | 0.00 | 0.11 | 0.08 | 94 | 1009.9 |
| 20260506224801 | 46 | 292 | 0.9 | 2.6 | 0.00 | 0.11 | 0.08 | 94 | 1010.0 |
| 20260506224300 | 46 | 292 | 0.9 | 2.6 | 0.00 | 0.11 | 0.08 | 94 | 1010.0 |
| 20260506223800 | 46 | 292 | 0.9 | 2.6 | 0.00 | 0.11 | 0.08 | 94 | 1010.1 |
| 20260506223259 | 46 | 300 | 0.9 | 2.6 | 0.00 | 0.11 | 0.08 | 94 | 1010.0 |
| 20260506222759 | 46 | 258 | 0.9 | 2.6 | 0.00 | 0.11 | 0.08 | 94 | 1010.0 |
| 20260506222256 | 46 | 244 | 0.0 | 1.7 | 0.00 | 0.11 | 0.08 | 94 | 1010.0 |
| 20260506221758 | 46 | 244 | 0.9 | 1.7 | 0.00 | 0.11 | 0.08 | 94 | 1009.8 |
| 20260506221259 | 46 | 244 | 0.9 | 1.7 | 0.00 | 0.11 | 0.08 | 94 | 1009.7 |
| 20260506220753 | 46 | 244 | 1.7 | 3.5 | 0.00 | 0.11 | 0.08 | 94 | 1009.8 |
| 20260506220253 | 46 | 244 | 1.7 | 3.5 | 0.00 | 0.11 | 0.08 | 94 | 1009.8 |
| 20260506215754 | 46 | 276 | 1.7 | 3.5 | 0.00 | 0.11 | 0.08 | 94 | 1009.8 |
| 20260506215253 | 46 | 256 | 1.7 | 3.5 | 0.00 | 0.11 | 0.08 | 94 | 1009.8 |
| 20260506214750 | 46 | 254 | 0.9 | 3.5 | 0.00 | 0.11 | 0.08 | 94 | 1009.7 |
| 20260506214252 | 46 | 246 | 0.9 | 3.5 | 0.00 | 0.11 | 0.08 | 94 | 1009.7 |
| 20260506213751 | 46 | 246 | 0.9 | 3.5 | 0.00 | 0.11 | 0.08 | 94 | 1009.7 |
| 20260506213251 | 46 | 259 | 0.9 | 2.6 | 0.00 | 0.11 | 0.08 | 94 | 1009.6 |
| 20260506212750 | 47 | 259 | 0.0 | 2.6 | 0.00 | 0.11 | 0.08 | 94 | 1009.6 |
| 20260506212250 | 47 | 259 | 0.9 | 1.7 | 0.00 | 0.11 | 0.08 | 94 | 1009.7 |
| 20260506211250 | 46 | 259 | 1.7 | 3.5 | 0.00 | 0.11 | 0.08 | 94 | 1009.8 |
| 20260506210751 | 47 | 266 | 0.9 | 2.6 | 0.00 | 0.11 | 0.08 | 94 | 1009.7 |
| 20260506210251 | 47 | 266 | 0.9 | 2.6 | 0.00 | 0.11 | 0.08 | 94 | 1009.7 |
| 20260506205752 | 47 | 266 | 0.9 | 2.6 | 0.00 | 0.11 | 0.08 | 94 | 1009.6 |
| 20260506205251 | 46 | 266 | 1.7 | 2.6 | 0.00 | 0.11 | 0.08 | 94 | 1009.6 |
| 20260506204750 | 46 | 257 | 1.7 | 3.5 | 0.00 | 0.11 | 0.08 | 94 | 1009.6 |
| 20260506204250 | 46 | 270 | 1.7 | 3.5 | 0.00 | 0.11 | 0.08 | 94 | 1009.7 |
| 20260506203752 | 46 | 259 | 0.9 | 3.5 | 0.00 | 0.11 | 0.08 | 94 | 1009.6 |
| 20260506202250 | 47 | 273 | 0.9 | 2.6 | 0.00 | 0.11 | 0.08 | 94 | 1009.5 |
| 20260506201751 | 47 | 273 | 1.7 | 3.5 | 0.00 | 0.11 | 0.08 | 94 | 1009.6 |
| 20260506201251 | 47 | 272 | 1.7 | 3.5 | 0.00 | 0.11 | 0.08 | 93 | 1009.5 |
| 20260506200750 | 47 | 287 | 0.9 | 2.6 | 0.00 | 0.11 | 0.08 | 93 | 1009.6 |
| 20260506195752 | 47 | 299 | 0.9 | 2.6 | 0.00 | 0.12 | 0.08 | 94 | 1009.5 |
| 20260506195250 | 47 | 299 | 0.9 | 2.6 | 0.00 | 0.13 | 0.08 | 94 | 1009.5 |
| 20260506194750 | 47 | 265 | 0.9 | 2.6 | 0.00 | 0.14 | 0.08 | 94 | 1009.6 |
| 20260506194250 | 47 | 263 | 0.9 | 3.5 | 0.00 | 0.14 | 0.08 | 93 | 1009.6 |
| 20260506193750 | 47 | 267 | 0.9 | 3.5 | 0.00 | 0.14 | 0.08 | 93 | 1009.7 |
| 20260506193250 | 47 | 308 | 0.9 | 2.6 | 0.00 | 0.14 | 0.08 | 94 | 1009.8 |
| 20260506192751 | 47 | 342 | 0.9 | 2.6 | 0.00 | 0.15 | 0.08 | 93 | 1009.7 |
| 20260506192250 | 47 | 342 | 0.9 | 3.5 | 0.00 | 0.15 | 0.08 | 94 | 1009.7 |
| 20260506191250 | 47 | 331 | 1.7 | 3.5 | 0.00 | 0.15 | 0.08 | 94 | 1009.7 |
| 20260506190251 | 47 | 280 | 1.7 | 3.5 | 0.00 | 0.15 | 0.08 | 94 | 1009.7 |
| 20260506185748 | 47 | 325 | 1.7 | 3.5 | 0.00 | 0.15 | 0.08 | 94 | 1009.6 |
| 20260506185249 | 47 | 320 | 1.7 | 4.3 | 0.00 | 0.15 | 0.08 | 94 | 1009.6 |
| 20260506184749 | 47 | 338 | 1.7 | 4.3 | 0.00 | 0.15 | 0.08 | 94 | 1009.6 |
| 20260506184247 | 47 | 336 | 1.7 | 2.6 | 0.00 | 0.15 | 0.08 | 94 | 1009.7 |
| 20260506183746 | 47 | 343 | 1.7 | 3.5 | 0.00 | 0.15 | 0.08 | 94 | 1009.6 |
| 20260506183247 | 47 | 349 | 1.7 | 3.5 | 0.00 | 0.15 | 0.08 | 94 | 1009.6 |
| 20260506182247 | 47 | 313 | 0.9 | 2.6 | 0.00 | 0.15 | 0.08 | 94 | 1009.8 |
| 20260506181747 | 47 | 330 | 0.9 | 2.6 | 0.00 | 0.15 | 0.08 | 94 | 1009.8 |
| 20260506181246 | 47 | 325 | 0.9 | 2.6 | 0.00 | 0.15 | 0.08 | 94 | 1009.9 |
| 20260506180747 | 46 | 312 | 0.9 | 2.6 | 0.00 | 0.15 | 0.08 | 94 | 1010.1 |
| 20260506180246 | 46 | 323 | 1.7 | 2.6 | 0.00 | 0.15 | 0.08 | 94 | 1010.4 |
| 20260506175747 | 46 | 288 | 1.7 | 3.5 | 0.00 | 0.15 | 0.08 | 94 | 1010.5 |
| 20260506175247 | 46 | 336 | 1.7 | 4.3 | 0.00 | 0.15 | 0.08 | 94 | 1010.5 |
| 20260506174744 | 47 | 293 | 1.7 | 4.3 | 0.00 | 0.15 | 0.08 | 94 | 1010.4 |
| 20260506174245 | 47 | 344 | 1.7 | 4.3 | 0.00 | 0.15 | 0.08 | 94 | 1010.3 |
| 20260506173744 | 47 | 342 | 0.9 | 2.6 | 0.00 | 0.15 | 0.08 | 94 | 1010.3 |
| 20260506173246 | 47 | 337 | 0.9 | 2.6 | 0.00 | 0.15 | 0.08 | 94 | 1010.3 |
| 20260506172745 | 47 | 309 | 0.9 | 2.6 | 0.00 | 0.15 | 0.08 | 94 | 1010.3 |
| 20260506172245 | 47 | 315 | 0.9 | 2.6 | 0.00 | 0.15 | 0.08 | 94 | 1010.3 |
| 20260506171745 | 47 | 275 | 0.9 | 1.7 | 0.00 | 0.15 | 0.08 | 94 | 1010.3 |
| 20260506171244 | 47 | 275 | 0.9 | 3.5 | 0.00 | 0.15 | 0.08 | 94 | 1010.4 |
| 20260506170743 | 47 | 274 | 0.9 | 3.5 | 0.00 | 0.15 | 0.08 | 94 | 1010.4 |
| 20260506170242 | 47 | 308 | 1.7 | 3.5 | 0.00 | 0.15 | 0.08 | 94 | 1010.2 |
| 20260506165742 | 47 | 294 | 1.7 | 3.5 | 0.00 | 0.15 | 0.08 | 94 | 1010.3 |
| 20260506165242 | 47 | 333 | 1.7 | 3.5 | 0.00 | 0.15 | 0.08 | 94 | 1010.1 |
| 20260506164742 | 47 | 346 | 1.7 | 3.5 | 0.01 | 0.15 | 0.08 | 94 | 1010.5 |
| 20260506163742 | 47 | 283 | 1.7 | 3.5 | 0.01 | 0.15 | 0.08 | 94 | 1010.2 |
| 20260506163240 | 47 | 327 | 1.7 | 4.3 | 0.02 | 0.15 | 0.08 | 94 | 1010.3 |
| 20260506162740 | 47 | 330 | 1.7 | 4.3 | 0.02 | 0.15 | 0.08 | 94 | 1010.4 |
| 20260506162240 | 47 | 311 | 1.7 | 3.5 | 0.02 | 0.15 | 0.08 | 94 | 1010.5 |
| 20260506161741 | 47 | 325 | 1.7 | 3.5 | 0.02 | 0.15 | 0.08 | 94 | 1010.5 |
| 20260506161240 | 48 | 268 | 1.7 | 3.5 | 0.02 | 0.15 | 0.08 | 94 | 1010.6 |
| 20260506160740 | 48 | 312 | 1.7 | 2.6 | 0.02 | 0.15 | 0.08 | 94 | 1010.5 |
| 20260506160240 | 47 | 284 | 0.9 | 2.6 | 0.02 | 0.15 | 0.08 | 94 | 1010.4 |
| 20260506155740 | 47 | 284 | 0.9 | 2.6 | 0.02 | 0.15 | 0.08 | 94 | 1010.3 |
| 20260506155237 | 47 | 284 | 1.7 | 2.6 | 0.02 | 0.15 | 0.08 | 94 | 1010.4 |
| 20260506154737 | 47 | 317 | 1.7 | 2.6 | 0.01 | 0.14 | 0.07 | 94 | 1010.4 |
| 20260506153237 | 48 | 349 | 1.7 | 3.5 | 0.00 | 0.13 | 0.06 | 94 | 1010.4 |
| 20260506152736 | 48 | 307 | 1.7 | 3.5 | 0.00 | 0.13 | 0.06 | 94 | 1010.5 |
| 20260506152237 | 48 | 321 | 1.7 | 4.3 | 0.00 | 0.13 | 0.06 | 94 | 1010.4 |
| 20260506151737 | 48 | 320 | 1.7 | 4.3 | 0.00 | 0.13 | 0.06 | 94 | 1010.5 |
| 20260506151236 | 48 | 319 | 0.9 | 2.6 | 0.00 | 0.13 | 0.06 | 94 | 1010.6 |
| 20260506150234 | 48 | 279 | 0.9 | 4.3 | 0.00 | 0.13 | 0.06 | 94 | 1010.5 |
| 20260506145733 | 48 | 272 | 0.9 | 3.5 | 0.00 | 0.13 | 0.06 | 94 | 1010.7 |
| 20260506145230 | 49 | 300 | 0.9 | 3.5 | 0.00 | 0.13 | 0.06 | 94 | 1010.7 |
| 20260506144729 | 49 | 338 | 0.0 | 1.7 | 0.00 | 0.13 | 0.06 | 94 | 1011.0 |
| 20260506144229 | 49 | 338 | 0.9 | 1.7 | 0.00 | 0.13 | 0.06 | 94 | 1010.9 |
| 20260506143729 | 49 | 0 | 0.9 | 2.6 | 0.00 | 0.13 | 0.06 | 94 | 1010.9 |
| 20260506143231 | 49 | 0 | 0.9 | 2.6 | 0.01 | 0.13 | 0.06 | 94 | 1010.9 |
| 20260506142730 | 48 | 350 | 0.9 | 2.6 | 0.01 | 0.13 | 0.06 | 94 | 1011.1 |
| 20260506141229 | 49 | 350 | 0.9 | 1.7 | 0.02 | 0.13 | 0.06 | 94 | 1011.0 |
| 20260506140728 | 49 | 349 | 0.9 | 1.7 | 0.02 | 0.13 | 0.06 | 94 | 1011.0 |
| 20260506140228 | 49 | 355 | 0.9 | 1.7 | 0.02 | 0.13 | 0.06 | 94 | 1011.0 |
| 20260506135728 | 49 | 355 | 0.9 | 2.6 | 0.02 | 0.13 | 0.06 | 94 | 1011.0 |
| 20260506135228 | 49 | 5 | 1.7 | 2.6 | 0.02 | 0.13 | 0.06 | 94 | 1011.0 |
| 20260506134728 | 49 | 304 | 1.7 | 3.5 | 0.02 | 0.13 | 0.06 | 94 | 1011.4 |
| 20260506134227 | 49 | 336 | 0.9 | 3.5 | 0.02 | 0.13 | 0.06 | 94 | 1011.0 |
| 20260506133728 | 49 | 345 | 0.9 | 2.6 | 0.02 | 0.13 | 0.06 | 94 | 1011.0 |
| 20260506133228 | 49 | 338 | 0.9 | 4.3 | 0.01 | 0.12 | 0.06 | 94 | 1011.1 |
| 20260506131728 | 49 | 338 | 1.7 | 5.2 | 0.00 | 0.11 | 0.04 | 94 | 1011.6 |
| 20260506131228 | 49 | 36 | 0.9 | 2.6 | 0.00 | 0.11 | 0.04 | 94 | 1011.5 |
| 20260506130728 | 49 | 37 | 0.0 | 2.6 | 0.00 | 0.11 | 0.04 | 94 | 1011.3 |
| 20260506130228 | 50 | 345 | 0.9 | 1.7 | 0.00 | 0.11 | 0.04 | 94 | 1011.5 |
| 20260506125228 | 50 | 345 | 0.9 | 1.7 | 0.00 | 0.11 | 0.04 | 94 | 1011.9 |
| 20260506124727 | 50 | 345 | 0.0 | 1.7 | 0.00 | 0.11 | 0.04 | 94 | 1011.6 |
| 20260506123728 | 50 | 345 | 0.0 | 1.7 | 0.00 | 0.11 | 0.04 | 94 | 1011.6 |
| 20260506123229 | 50 | 345 | 0.0 | 1.7 | 0.00 | 0.11 | 0.04 | 94 | 1011.7 |
| 20260506122728 | 50 | 345 | 0.0 | 1.7 | 0.00 | 0.11 | 0.04 | 94 | 1011.9 |
| 20260506122229 | 50 | 345 | 0.9 | 2.6 | 0.00 | 0.11 | 0.04 | 94 | 1011.6 |
| 20260506121728 | 50 | 345 | 0.9 | 2.6 | 0.00 | 0.11 | 0.04 | 94 | 1011.6 |
| 20260506121228 | 50 | 319 | 0.9 | 2.6 | 0.00 | 0.11 | 0.04 | 94 | 1011.8 |
| 20260506120727 | 50 | 348 | 0.9 | 2.6 | 0.00 | 0.11 | 0.04 | 94 | 1012.1 |
| 20260506120227 | 50 | 337 | 1.7 | 3.5 | 0.00 | 0.11 | 0.04 | 94 | 1012.2 |
| 20260506115728 | 50 | 38 | 1.7 | 3.5 | 0.00 | 0.11 | 0.04 | 94 | 1012.0 |
| 20260506114728 | 50 | 351 | 0.9 | 1.7 | 0.00 | 0.11 | 0.04 | 94 | 1011.7 |
| 20260506114229 | 50 | 0 | 0.9 | 1.7 | 0.00 | 0.11 | 0.04 | 94 | 1011.7 |
| 20260506113728 | 50 | 0 | 0.9 | 1.7 | 0.00 | 0.11 | 0.04 | 94 | 1011.6 |
| 20260506113227 | 50 | 0 | 0.9 | 3.5 | 0.00 | 0.11 | 0.04 | 94 | 1011.6 |
| 20260506112728 | 50 | 0 | 0.9 | 3.5 | 0.00 | 0.11 | 0.04 | 94 | 1011.6 |
| 20260506110723 | 51 | 5 | 0.0 | 1.7 | 0.00 | 0.11 | 0.04 | 94 | 1011.7 |
| 20260506110223 | 51 | 5 | 0.0 | 1.7 | 0.00 | 0.11 | 0.04 | 95 | 1011.5 |
| 20260506104721 | 51 | 5 | 0.9 | 1.7 | 0.00 | 0.11 | 0.04 | 94 | 1011.6 |
| 20260506104223 | 51 | 5 | 0.9 | 1.7 | 0.00 | 0.11 | 0.04 | 94 | 1011.6 |
| 20260506103222 | 51 | 5 | 0.0 | 1.7 | 0.00 | 0.11 | 0.04 | 94 | 1011.7 |
| 20260506102721 | 51 | 5 | 0.9 | 2.6 | 0.00 | 0.11 | 0.04 | 94 | 1011.5 |
| 20260506102222 | 51 | 5 | 0.9 | 2.6 | 0.00 | 0.11 | 0.04 | 94 | 1011.6 |
| 20260506101722 | 51 | 331 | 0.9 | 1.7 | 0.00 | 0.11 | 0.04 | 94 | 1011.8 |
| 20260506101222 | 51 | 331 | 0.9 | 2.6 | 0.00 | 0.11 | 0.04 | 94 | 1011.9 |
| 20260506100721 | 51 | 338 | 0.9 | 2.6 | 0.00 | 0.11 | 0.04 | 94 | 1011.8 |
| 20260506100221 | 52 | 337 | 0.9 | 2.6 | 0.00 | 0.11 | 0.04 | 94 | 1011.9 |
| 20260506095722 | 52 | 57 | 0.9 | 4.3 | 0.00 | 0.11 | 0.04 | 94 | 1011.6 |
| 20260506095220 | 52 | 61 | 0.9 | 4.3 | 0.00 | 0.11 | 0.04 | 95 | 1011.6 |
| 20260506094721 | 52 | 355 | 0.9 | 2.6 | 0.00 | 0.11 | 0.04 | 95 | 1012.0 |
| 20260506094221 | 52 | 355 | 0.9 | 2.6 | 0.00 | 0.11 | 0.04 | 94 | 1011.9 |
| 20260506093721 | 52 | 15 | 0.9 | 2.6 | 0.00 | 0.11 | 0.04 | 95 | 1011.8 |
| 20260506092721 | 53 | 5 | 0.9 | 1.7 | 0.00 | 0.11 | 0.04 | 95 | 1011.8 |
| 20260506091221 | 53 | 5 | 0.9 | 2.6 | 0.00 | 0.11 | 0.04 | 94 | 1011.7 |
| 20260506090721 | 53 | 5 | 0.9 | 3.5 | 0.00 | 0.11 | 0.04 | 94 | 1011.5 |
| 20260506090219 | 53 | 63 | 0.9 | 3.5 | 0.00 | 0.11 | 0.04 | 94 | 1011.7 |
| 20260506085719 | 53 | 311 | 0.9 | 1.7 | 0.00 | 0.11 | 0.04 | 94 | 1011.9 |
| 20260506085219 | 53 | 311 | 0.9 | 1.7 | 0.00 | 0.11 | 0.04 | 95 | 1011.7 |
| 20260506084721 | 53 | 311 | 0.0 | 1.7 | 0.00 | 0.11 | 0.04 | 94 | 1012.3 |
| 20260506084220 | 53 | 311 | 0.0 | 0.9 | 0.00 | 0.11 | 0.04 | 94 | 1011.9 |
| 20260506083719 | 53 | 311 | 0.0 | 0.9 | 0.00 | 0.11 | 0.04 | 94 | 1011.6 |
| 20260506083219 | 53 | 311 | 0.0 | 1.7 | 0.00 | 0.11 | 0.04 | 94 | 1011.9 |
| 20260506082719 | 53 | 311 | 0.9 | 1.7 | 0.00 | 0.11 | 0.04 | 94 | 1012.2 |
| 20260506082218 | 53 | 311 | 0.9 | 1.7 | 0.00 | 0.11 | 0.04 | 94 | 1012.1 |
| 20260506081718 | 54 | 305 | 0.9 | 3.5 | 0.00 | 0.11 | 0.04 | 94 | 1012.3 |
| 20260506081218 | 53 | 311 | 0.9 | 3.5 | 0.00 | 0.11 | 0.04 | 94 | 1012.5 |
| 20260506080717 | 53 | 107 | 0.0 | 1.7 | 0.00 | 0.11 | 0.04 | 94 | 1011.9 |
| 20260506073216 | 54 | 107 | 0.9 | 1.7 | 0.00 | 0.11 | 0.04 | 94 | 1011.3 |
| 20260506072715 | 54 | 107 | 0.0 | 1.7 | 0.00 | 0.11 | 0.04 | 94 | 1011.7 |
| 20260506072215 | 54 | 107 | 0.0 | 0.9 | 0.00 | 0.11 | 0.04 | 94 | 1011.5 |
| 20260506071715 | 54 | 107 | 0.0 | 0.0 | 0.00 | 0.11 | 0.04 | 94 | 1011.4 |
| 20260506071215 | 54 | 107 | 0.0 | 0.9 | 0.00 | 0.11 | 0.04 | 94 | 1011.4 |
| 20260506070715 | 54 | 107 | 0.9 | 1.7 | 0.00 | 0.11 | 0.04 | 94 | 1011.6 |
| 20260506070215 | 54 | 107 | 0.9 | 1.7 | 0.00 | 0.11 | 0.04 | 94 | 1011.7 |
| 20260506061214 | 54 | 107 | 0.0 | 0.9 | 0.00 | 0.11 | 0.04 | 93 | 1011.7 |
| 20260506050712 | 54 | 108 | 0.9 | 2.6 | 0.04 | 0.11 | 0.04 | 92 | 1012.2 |
| 20260506050211 | 54 | 108 | 0.9 | 2.6 | 0.04 | 0.11 | 0.04 | 92 | 1012.1 |
| 20260506043711 | 55 | 46 | 0.9 | 1.7 | 0.04 | 0.09 | 0.02 | 90 | 1012.0 |
| 20260506043210 | 55 | 46 | 0.9 | 1.7 | 0.04 | 0.09 | 0.02 | 90 | 1011.4 |
| 20260506042710 | 55 | 46 | 0.9 | 1.7 | 0.04 | 0.09 | 0.02 | 90 | 1011.9 |
| 20260506042208 | 55 | 46 | 0.9 | 2.6 | 0.04 | 0.08 | 0.01 | 90 | 1011.8 |
| 20260506041208 | 55 | 31 | 1.7 | 7.8 | 0.03 | 0.07 | 0.00 | 89 | 1012.1 |
| 20260506040209 | 56 | 5 | 0.9 | 3.5 | 0.03 | 0.07 | 0.00 | 89 | 1012.3 |
| 20260506035707 | 56 | 278 | 0.0 | 1.7 | 0.02 | 0.06 | 0.06 | 89 | 1012.1 |
| 20260506035207 | 57 | 278 | 0.9 | 2.6 | 0.02 | 0.06 | 0.06 | 89 | 1011.6 |
| 20260506034705 | 57 | 278 | 1.7 | 7.0 | 0.02 | 0.06 | 0.06 | 90 | 1011.4 |
| 20260506034205 | 57 | 246 | 2.6 | 7.0 | 0.01 | 0.05 | 0.05 | 90 | 1011.3 |
| 20260506033705 | 57 | 338 | 3.5 | 7.8 | 0.01 | 0.05 | 0.05 | 90 | 1011.1 |
| 20260506033205 | 58 | 262 | 2.6 | 9.6 | 0.01 | 0.05 | 0.05 | 91 | 1010.7 |
| 20260506032706 | 58 | 331 | 1.7 | 9.6 | 0.01 | 0.05 | 0.05 | 92 | 1010.6 |
| 20260506032206 | 58 | 325 | 0.9 | 4.3 | 0.00 | 0.04 | 0.04 | 92 | 1010.6 |
| 20260506031705 | 58 | 9 | 0.9 | 4.3 | 0.00 | 0.04 | 0.04 | 92 | 1010.1 |
| 20260506031206 | 58 | 342 | 0.9 | 2.6 | 0.00 | 0.04 | 0.04 | 92 | 1010.2 |
| 20260506030705 | 58 | 342 | 0.9 | 2.6 | 0.00 | 0.04 | 0.04 | 91 | 1010.1 |
| 20260506030206 | 58 | 9 | 0.9 | 3.5 | 0.00 | 0.04 | 0.04 | 91 | 1010.1 |
| 20260506025706 | 58 | 5 | 0.9 | 3.5 | 0.00 | 0.04 | 0.04 | 91 | 1010.2 |
| 20260506025205 | 58 | 5 | 0.0 | 2.6 | 0.00 | 0.04 | 0.04 | 91 | 1010.2 |
| 20260506024206 | 58 | 9 | 0.0 | 2.6 | 0.00 | 0.04 | 0.04 | 91 | 1010.1 |
| 20260506023706 | 58 | 9 | 0.0 | 2.6 | 0.00 | 0.04 | 0.04 | 91 | 1010.1 |
| 20260506023206 | 58 | 15 | 0.0 | 0.0 | 0.00 | 0.04 | 0.04 | 90 | 1010.1 |
| 20260506022705 | 58 | 15 | 0.0 | 0.0 | 0.00 | 0.04 | 0.04 | 90 | 1010.4 |
| 20260506022208 | 58 | 15 | 0.0 | 1.7 | 0.00 | 0.04 | 0.04 | 90 | 1010.0 |
| 20260506021706 | 58 | 15 | 1.7 | 3.5 | 0.00 | 0.04 | 0.04 | 90 | 1010.2 |
| 20260506021206 | 58 | 15 | 1.7 | 3.5 | 0.00 | 0.04 | 0.04 | 90 | 1010.3 |
| 20260506020707 | 59 | 318 | 0.9 | 3.5 | 0.00 | 0.04 | 0.04 | 90 | 1010.3 |
| 20260506020206 | 59 | 355 | 0.0 | 2.6 | 0.00 | 0.04 | 0.04 | 90 | 1010.1 |
| 20260506015706 | 59 | 355 | 0.0 | 0.0 | 0.00 | 0.04 | 0.04 | 90 | 1010.1 |
| 20260506015206 | 59 | 355 | 0.0 | 0.9 | 0.00 | 0.04 | 0.04 | 89 | 1010.0 |
| 20260506014706 | 59 | 355 | 0.0 | 0.9 | 0.00 | 0.04 | 0.04 | 89 | 1010.0 |
| 20260506014206 | 59 | 355 | 0.0 | 1.7 | 0.00 | 0.04 | 0.04 | 89 | 1009.6 |
| 20260506013707 | 59 | 355 | 0.0 | 1.7 | 0.00 | 0.04 | 0.04 | 89 | 1009.5 |
| 20260506013206 | 59 | 355 | 0.0 | 0.9 | 0.00 | 0.04 | 0.04 | 89 | 1009.4 |
| 20260506012707 | 59 | 355 | 0.0 | 0.0 | 0.00 | 0.04 | 0.04 | 89 | 1009.4 |
| 20260506012206 | 59 | 355 | 0.0 | 1.7 | 0.00 | 0.04 | 0.04 | 89 | 1009.5 |
| 20260506011706 | 59 | 355 | 0.9 | 2.6 | 0.00 | 0.04 | 0.04 | 89 | 1009.3 |
| 20260506011205 | 60 | 355 | 0.9 | 2.6 | 0.00 | 0.04 | 0.04 | 89 | 1009.4 |